GW1174 Weather Reports


Display with metric or nautical units.
time (UTC)temp
F
wind
direction
speed
MPH
gust
MPH
rain 1hr
in
rain 24hr
in
rain mn
in
humidity
%
barometer
mb
20260507171516 50 293 4.0 9.0 0.00 0.22 0.04 88 1014.0
20260507170516 50 293 3.0 7.0 0.00 0.24 0.04 88 1013.9
20260507165559 50 293 3.0 5.0 0.00 0.27 0.04 87 1013.9
20260507164516 51 315 3.0 6.0 0.00 0.29 0.04 87 1013.9
20260507163516 51 293 3.0 9.0 0.00 0.29 0.04 86 1013.8
20260507162516 51 270 5.0 9.0 0.00 0.29 0.04 86 1013.6
20260507161516 52 270 4.0 9.0 0.00 0.29 0.04 87 1013.6
20260507160556 52 270 4.0 7.0 0.00 0.29 0.04 87 1013.6
20260507155517 52 270 4.0 8.0 0.00 0.29 0.04 88 1013.5
20260507154516 52 270 3.0 6.0 0.00 0.29 0.04 89 1013.4
20260507153539 52 270 3.0 6.0 0.00 0.29 0.04 90 1013.4
20260507152516 52 270 1.0 4.0 0.00 0.29 0.04 90 1013.4
20260507151516 51 270 4.0 9.0 0.01 0.29 0.04 91 1013.4
20260507150516 51 270 4.0 11.0 0.01 0.29 0.04 91 1013.3
20260507145516 50 270 5.0 9.0 0.02 0.29 0.04 90 1013.3
20260507144516 50 270 5.0 12.0 0.02 0.29 0.04 91 1013.3
20260507143516 51 293 3.0 7.0 0.02 0.29 0.04 91 1013.2
20260507142516 51 315 2.0 5.0 0.02 0.29 0.04 90 1013.2
20260507141516 50 315 3.0 8.0 0.01 0.28 0.03 89 1013.1
20260507140516 51 293 4.0 9.0 0.01 0.28 0.03 89 1013.2
20260507135516 51 293 3.0 7.0 0.00 0.28 0.02 88 1013.1
20260507134516 52 248 4.0 8.0 0.00 0.28 0.02 87 1013.1
20260507133515 52 270 4.0 8.0 0.00 0.28 0.02 86 1013.0
20260507132556 52 270 7.0 11.0 0.00 0.28 0.02 85 1012.9
20260507131516 52 270 5.0 11.0 0.00 0.28 0.02 86 1012.9
20260507130516 51 248 4.0 9.0 0.00 0.28 0.02 85 1012.7
20260507125516 51 225 5.0 12.0 0.00 0.28 0.02 85 1012.6
20260507124515 52 270 7.0 11.0 0.00 0.28 0.02 85 1012.5
20260507123516 52 225 4.0 7.0 0.00 0.28 0.02 85 1012.4
20260507122515 52 248 3.0 7.0 0.00 0.28 0.02 86 1012.2
20260507121517 51 270 6.0 11.0 0.00 0.28 0.02 86 1012.3
20260507120517 52 225 4.0 8.0 0.00 0.28 0.02 87 1012.2
20260507115518 52 270 6.0 10.0 0.00 0.28 0.02 87 1012.1
20260507114517 52 270 6.0 10.0 0.00 0.28 0.02 87 1012.1
20260507113517 52 248 6.0 12.0 0.00 0.28 0.02 88 1012.0
20260507112518 53 203 5.0 10.0 0.00 0.28 0.02 89 1012.1
20260507111538 52 270 4.0 8.0 0.00 0.28 0.02 89 1012.0
20260507110517 52 270 4.0 8.0 0.00 0.28 0.02 90 1012.0
20260507105517 52 270 4.0 8.0 0.00 0.28 0.02 90 1012.0
20260507104518 52 270 3.0 8.0 0.00 0.28 0.02 90 1011.9
20260507103537 52 270 6.0 11.0 0.00 0.28 0.02 89 1011.8
20260507102537 53 315 5.0 9.0 0.00 0.28 0.02 90 1011.8
20260507101537 52 270 5.0 10.0 0.00 0.28 0.02 90 1011.7
20260507100517 52 225 6.0 11.0 0.00 0.28 0.02 91 1011.7
20260507095517 53 225 6.0 14.0 0.00 0.28 0.02 92 1011.6
20260507094517 52 248 3.0 9.0 0.01 0.28 0.02 93 1011.6
20260507093517 52 225 6.0 11.0 0.01 0.28 0.02 93 1011.5
20260507092517 52 225 5.0 10.0 0.01 0.28 0.02 93 1011.4
20260507091517 52 225 4.0 8.0 0.01 0.28 0.02 94 1011.3
20260507090517 51 225 6.0 11.0 0.01 0.28 0.02 94 1011.2
20260507085519 51 203 4.0 7.0 0.01 0.28 0.02 94 1011.0
20260507084517 51 203 4.0 9.0 0.00 0.27 0.02 94 1011.0
20260507083517 51 203 6.0 12.0 0.00 0.27 0.02 94 1010.7
20260507082517 51 203 5.0 9.0 0.00 0.27 0.02 94 1010.6
20260507081517 50 225 4.0 9.0 0.00 0.27 0.02 94 1010.4
20260507080517 50 225 4.0 6.0 0.01 0.27 0.02 94 1010.3
20260507075517 50 225 4.0 11.0 0.01 0.27 0.02 95 1010.3
20260507074517 50 225 4.0 7.0 0.01 0.27 0.02 95 1010.1
20260507073537 50 203 4.0 8.0 0.01 0.27 0.02 95 1010.0
20260507072517 50 203 6.0 9.0 0.01 0.27 0.02 95 1009.9
20260507071517 50 203 4.0 9.0 0.01 0.27 0.02 95 1009.8
20260507070517 49 203 5.0 9.0 0.00 0.26 0.01 95 1009.8
20260507065537 49 203 6.0 11.0 0.00 0.26 0.01 95 1009.9
20260507064517 49 203 5.0 9.0 0.00 0.26 0.01 95 1009.7
20260507063517 49 203 4.0 10.0 0.00 0.26 0.01 95 1009.6
20260507062517 49 180 6.0 10.0 0.00 0.26 0.01 95 1009.5
20260507061518 49 203 5.0 9.0 0.00 0.26 0.01 95 1009.5
20260507060517 49 203 3.0 6.0 0.00 0.26 0.01 95 1009.5
20260507055517 49 203 5.0 10.0 0.00 0.26 0.01 95 1009.4
20260507054516 49 203 3.0 6.0 0.00 0.26 0.01 95 1009.2
20260507053537 49 180 2.0 4.0 0.00 0.26 0.01 95 1009.2
20260507052536 49 225 4.0 6.0 0.00 0.26 0.01 95 1009.0
20260507051517 49 225 4.0 9.0 0.00 0.26 0.01 95 1008.8
20260507050517 49 225 4.0 9.0 0.00 0.26 0.01 95 1009.1
20260507045537 49 225 3.0 8.0 0.00 0.26 0.01 95 1008.9
20260507044537 49 180 2.0 5.0 0.00 0.26 0.01 95 1008.9
20260507043516 49 225 3.0 6.0 0.00 0.26 0.01 95 1008.9
20260507042536 49 225 3.0 6.0 0.00 0.26 0.01 95 1008.9
20260507041516 49 225 4.0 9.0 0.00 0.26 0.01 95 1008.8
20260507040516 49 248 4.0 8.0 0.00 0.26 0.01 95 1008.8
20260507035516 49 225 3.0 6.0 0.00 0.26 0.01 95 1008.8
20260507034539 49 203 4.0 9.0 0.00 0.26 0.01 95 1008.7
20260507033516 49 203 4.0 6.0 0.00 0.26 0.01 95 1008.6
20260507032516 49 225 4.0 8.0 0.00 0.26 0.01 95 1008.6
20260507031516 50 225 5.0 11.0 0.00 0.26 0.01 95 1008.5
20260507030516 50 203 4.0 9.0 0.00 0.26 0.01 95 1008.4
20260507025536 50 225 5.0 9.0 0.00 0.26 0.01 95 1008.3
20260507024516 50 225 3.0 6.0 0.00 0.26 0.01 95 1008.2
20260507023536 50 225 4.0 9.0 0.00 0.26 0.01 95 1008.2
20260507022516 50 248 3.0 5.0 0.00 0.26 0.01 95 1008.4
20260507021517 51 203 3.0 6.0 0.00 0.26 0.01 95 1008.2
20260507020516 51 248 2.0 6.0 0.00 0.26 0.01 95 1008.2
20260507015516 51 203 3.0 9.0 0.00 0.26 0.01 95 1008.3
20260507014516 51 203 4.0 7.0 0.00 0.26 0.01 95 1008.0
20260507013516 51 225 4.0 7.0 0.00 0.26 0.01 95 1008.0
20260507012536 51 203 4.0 6.0 0.00 0.26 0.01 95 1008.0
20260507011516 51 248 3.0 6.0 0.00 0.26 0.01 95 1008.0
20260507010516 51 225 5.0 11.0 0.00 0.26 0.01 95 1007.9
20260507005516 51 203 4.0 7.0 0.00 0.26 0.01 94 1007.9
20260507004516 51 225 3.0 7.0 0.00 0.26 0.01 94 1008.0
20260507003516 51 225 4.0 7.0 0.00 0.26 0.01 94 1007.9
20260507002516 51 203 4.0 7.0 0.00 0.26 0.01 94 1007.8
20260507001516 51 248 4.0 7.0 0.00 0.26 0.01 94 1008.0
20260507000516 51 158 2.0 5.0 0.00 0.26 0.01 94 1008.0
20260506235556 52 203 1.0 3.0 0.00 0.26 0.01 94 1007.9
20260506234516 51 158 1.0 2.0 0.00 0.26 0.01 94 1007.9
20260506233536 52 158 1.0 2.0 0.00 0.26 0.01 94 1008.1
20260506232516 52 203 1.0 4.0 0.00 0.26 0.01 94 1008.0
20260506231516 52 158 2.0 4.0 0.00 0.26 0.01 94 1008.0
20260506230516 52 180 2.0 3.0 0.01 0.27 0.01 94 1007.9
20260506225536 52 0.0 2.0 0.01 0.27 0.01 94 1007.7
20260506224516 52 225 1.0 5.0 0.01 0.27 0.01 94 1007.5
20260506223516 52 225 1.0 3.0 0.01 0.27 0.01 94 1007.6
20260506222516 52 158 2.0 4.0 0.01 0.27 0.01 94 1007.5
20260506221516 52 158 1.0 5.0 0.01 0.27 0.01 94 1007.4
20260506220536 52 158 1.0 2.0 0.00 0.26 0.00 94 1007.3
20260506215516 53 158 2.0 4.0 0.00 0.26 0.26 94 1007.4
20260506214517 53 158 1.0 3.0 0.00 0.26 0.26 94 1007.5
20260506213537 53 0.0 2.0 0.01 0.26 0.26 93 1007.3
20260506212516 53 180 1.0 2.0 0.02 0.26 0.26 93 1007.3
20260506211516 53 0.0 1.0 0.03 0.26 0.26 93 1007.0
20260506210516 53 0.0 1.0 0.06 0.26 0.26 93 1007.1
20260506205516 53 113 1.0 3.0 0.09 0.26 0.26 93 1007.0
20260506204516 53 113 1.0 3.0 0.11 0.26 0.26 93 1007.1
20260506203537 53 158 1.0 4.0 0.11 0.25 0.25 93 1006.9
20260506202516 53 113 2.0 3.0 0.12 0.24 0.24 93 1006.8
20260506201516 53 135 3.0 6.0 0.12 0.23 0.23 93 1006.7
20260506200517 54 158 4.0 8.0 0.10 0.20 0.20 93 1006.8
20260506195517 53 180 3.0 8.0 0.07 0.17 0.17 92 1006.7
20260506194516 53 158 2.0 5.0 0.05 0.15 0.15 92 1006.6
20260506193516 54 225 2.0 3.0 0.04 0.14 0.14 92 1006.3
20260506192536 54 135 1.0 3.0 0.02 0.13 0.13 92 1005.8
20260506191536 54 135 2.0 3.0 0.01 0.11 0.11 92 1005.9
20260506190516 54 158 3.0 5.0 0.00 0.10 0.10 91 1005.7
20260506185516 54 0.0 1.0 0.00 0.10 0.10 91 1005.3
20260506184536 54 0.0 0.0 0.00 0.10 0.10 91 1005.1
20260506183516 54 0.0 0.0 0.00 0.10 0.10 90 1004.9
20260506182536 54 0.0 1.0 0.01 0.10 0.10 90 1004.8
20260506181517 55 0.0 2.0 0.02 0.10 0.10 90 1004.5
20260506180519 55 0.0 0.0 0.04 0.10 0.10 89 1004.6
20260506175539 55 0.0 0.0 0.07 0.10 0.10 89 1004.4
20260506174536 55 0.0 0.0 0.09 0.10 0.10 88 1004.5
20260506173516 55 0.0 0.0 0.09 0.10 0.10 88 1004.6
20260506172516 56 0.0 0.0 0.09 0.21 0.09 87 1004.7